Погода Нижний Тагил

Погода Нижний Тагил : погода сейчас, прогноз погоды и архив. Всё, что Вы хотите узнать о погоде Нижний Тагил!

Хотите узнать прогноз погоды Нижний Тагил? Тогда Вам сюда: Погода Нижний Тагил

Поиск расширенной информации на нашем сайте:

Другие новости

Новости СМИ2

Главная страница сайта

Новости сайта

02.10.2013

Напоминаем, что на нашем новом сайте вы можете получить высокодетализированные прогнозы погоды по пунктам России, СНГ и мира (включающие важные для авиации метеовеличины, такие как направление и скорость ветра, видимость, явления погоды, количество и форма облачности, нижняя и верхняя граница облачности), а также ознакомиться с разнообразными материалами по авиационной метеорологии и подборкой полезных ссылок на эту тему.

Сайт Метеоцентр.Азия посвящён разработке технологий оптимизации авиаметеорологического обслуживания, включая проектирование и перспективное создание нескольких автоматизированных авиаметеорологических систем:
- система выпуска высокодетальных прогностических карт явлений погоды для нижнего воздушного пространства по России и ближнему зарубежью;
- система верификации прогнозов TAF (выпускаемых синоптиками официальных АМСГ РФ и ближнего зарубежья) и AUTOTAF (выпускаемых сайтом Метеоцентр.Азия) - выявление ошибок, онлайн-сопоставление с фактической погодой METAR, автоматическое внесение коррективов в прогнозы при резком отклонении фактической погоды от прогноза, подсчёт оправдываемости прогнозов по элементам и в целом;
- система обработки, анализа и отображения авиаметеорологической информации для применения провайдерами метеорологической информации.

Рекомендуем: антигравийная пленка фото здесь

Погода Нижний Тагил - сегодня

Время (UTC), дата Ветер
(°,м/с) 
Видим.   Явления Облачность Т
(°С)
Тd
(°С)
f(%) Тe
(°С)
Pmin
(гПа)
dP
(гПа)
Po
(мм)
O2
(г/м3)
Тmin Tmax R s Состояние
почвы
06 29.06.15 160 (Ю) 20000 м    3/0 верхняя 
[Ci fib]
+25.3 +15.1 53 +35  1007.5  -0.5  734  267           
09 29.06.15 290 (З) 20000 м    6/0 средняя, верхняя 
[Ac trans|Cc]
+28 +15.2 46 +38  1006.8  -0.4  733  265           
12 29.06.15 100 (В) 20000 м    10/8 600 м кучево-дожд., верхняя 
[Cb cap|Cc]
+28.3 +17.9 53 +43  1006.3  -0.4  733  264           
18 29.06.15 110 (В) 4000 м  дымка  8/4 600 м средняя 
[Sc|Ac lent]
+18.8 +17.5 92 +34  1007.6  0.8  733  272           
21 29.06.15 210 (ЮЗ) 4000 м  дымка  3/3 600 м 
[Sc]
+18.7 +17.1 90 +33  1007.1  -0.4  733  273           
00 30.06.15 130 (ЮВ) 20000 м    8/6 600 м средняя 
[Sc|Ac lent]
+17.6 +16.1 91 +29  1007  -0.2  733  274           
03 30.06.15 360 (С) 20000 м    8/0 средняя, верхняя 
[Ac trans|Ci fib]
+22.3 +16.1 68 +34  1007.6  734  270  +17.6        сухая 
06 30.06.15 020 (С) 20000 м  гроза без осадков  9/8 600 м кучево-дожд., средняя 
[Cb cap|Ac trans]
+22.4 +17.7 75 +37  1008  0.4  734  269           
09 30.06.15 040 (СВ) 20000 м  {гроза}  9/9 600 м кучево-дожд. 
[Cb cap]
+23.7 +18.5 73 +40  1008.6  0.8  734  268           
12 30.06.15 040 (СВ) 20000 м  {гроза}  9/9 600 м кучево-дожд. 
[Cb cap]
+22.3 +17.7 75 +37  1008.1  -0.6  734  269           
18 30.06.15 050 (СВ) 20000 м  {гроза, ливн. осадки}  10/10 300 м кучево-дожд. 
[Cb cap]
+13.8 +12.3 91 +19  1011.4  0.9  736  280           
21 30.06.15 050 (СВ) 4000 м  слаб. ливневой дождь  10/10 300 м кучево-дожд. 
[Cb cap]
+12.3 +11.3 94 +15  1009.9  -1.6  734  281           
00 01.07.15 010 (С) 4000 м  дымка{ливн. осадки}  10/10 600 м кучево-дожд. 
[Cb cap]
+12.1 +11.2 94 +15  1010.4  0.5  735  281           
03 01.07.15 060 (СВ) 4000 м  дымка{ливн. осадки}  10/10 600 м кучево-дожд. 
[Cb cap]
+12.8 +11.7 93 +17  1009.7  -0.7  734  280  +12.1    0.8    влажная 
06 01.07.15 030 (СВ) 20000 м  в посл. час ливневой дождь  10/10 600 м кучево-дожд. 
[Cb cap]
+14.2 +12.8 91 +20  1009.6  0.1  734  279           
09 01.07.15 030 (СВ) 20000 м    10/10 600 м кучево-дожд. 
[Cb cap]
+15 +13.3 90 +22  1009.3  -0.2  734  278           
12 01.07.15 020 (С) 4000 м  слаб. морось  10/10 300 м 
[St]
+14.7 +13.5 93 +22  1008.8  -0.5  734  278           
18 01.07.15 050 (СВ) 20000 м  {дождь, морось}  10/10 600 м 
[Sc]
+13.8 +12.8 94 +20  1006.7  -1.4  732  278           
21 01.07.15 040 (СВ) 20000 м  дымка  10/10 600 м 
[Sc]
+13.5 +12.6 94 +20  1004.7  -1.9  731  278           
00 02.07.15 010 (С) 4000 м  в посл. час морось  10/10 300 м 
[St]
+13.3 +12.5 95 +19  1002.9  -1.8  729  278           
03 02.07.15 360 (С) 4000 м  слаб. морось{дождь}  10/10 300 м 
[St]
+13.8 +12.8 94 +20  1001.7  -1.1  729  277  +13.3      влажная 
06 02.07.15 310 (СЗ) 20000 м  в посл. час морось{дождь}  10/10 300 м 
[St]
+14.5 +13.1 91 +21  1000.9  -0.6  728  276           
09 02.07.15 300 (СЗ) 2000 м  дождь  10/10 300 м 
[Ns]
+14.5 +13.3 93 +22  1000.9  728  276           
12 02.07.15 340 (С) 4000 м  слаб. дождь  10/10 300 м 
[Sc]
+14.4 +12.8 90 +20  1001.5  0.5  728  276           
15 02.07.15 340 (С) 5-10{12}  20000 м  в посл. час дождь  10/10 300 м 
[Frnb]
+12.4 +10.6 89 +15  1002.7  729  279    +15.6     
Время (UTC), дата Ветер
(°,м/с) 
Видим.   Явления Облачность Т
(°С)
Тd
(°С)
f(%) Тe
(°С)
Pmin
(гПа)
dP
(гПа)
Po
(мм)
O2
(г/м3)
Тmin Tmax R s Состояние
почвы

Для получения пояснительной информации подведите курсор к названию столбца.

ПОГОДА Нижний Тагил - архив

Всё, что Вы хотите узнать о погоде Нижний Тагил - удобно и подробно!

Выберите нужную дату (начиная с 1 января 2013* года) и нажмите кнопку "Найти".
Будут отображены архивные сводки погоды по пункту Нижний Тагил, начиная с указанной даты.


Отображать данные в формате CSV (для использования в таблицах Excel)


Внимание! Наш архив погоды предназначен исключительно для личного некоммерческого использования в познавательных целях. Если Вам необходимы официальные справки о состоянии погоды (для производственных, юридических, коммерческих и т.п. целей), обращайтесь в органы Росгидромета.

*Примечание: данная дата относится к архиву по метеостанциям СССР (Россия, СНГ, Балтия).
Архив по метеостанциям Зарубежной Европы и Азии (кроме Китая) хранится 10 дней, по другим регионам земного шара (Китай, Африка, Америка, Австралия, Океания) - 1 день.

Нижний Тагил - район местоположения метеостанции


Название, широта, долгота, высота метеостанции:
Нижний Тагил 57.9°ш. 60.1°д. 260 м над ур. моря [Российская Федерация]

Дополнительная информация

В oтличие oт бoльшинства пoгoдных сайтoв мы публикуем пoдрoбную метеoинфoрмацию в детальнoм прoфессиoнальнoм фoрмате.

Характеристики температуры и влажнoсти вoздуха измеряются на высoте 2 м в тени вдали oт зданий и деревьев.
Скoрoсть ветра измеряется на высoте 10 м (на урoвне рoста челoвека скoрoсть ветра ниже в 1.5-2 раза). Если метеoстанция нахoдится в гoрoде или в лесу, тo скoрoсть ветра занижена на 2-4 м/с пo сравнению с oткрытым местoм. Скoрoсть ветра над акватoриями крупных рек и oзёр, а также на вершинах хoлмoв на 2-5 м/с выше, чем в oбычных услoвиях.
Атмoсфернoе давление в разных тoчках местнoсти мoжет значительнo oтличаться oт давления на метеoстанции, в зависимoсти oт услoвий рельефа (при пoдъёме на 10 м давление пoнижается примернo на 1 мм рт.ст.).